Peru, IL

11:11 PM CDT on July 20, 2017 (GMT -0500)
Illinois Valley Regional-Duncan

Weather History for KVYS - January, 2013

Change the Weather History Date:

Tuesday, January 29, 2013

  Actual Average Record
Temperature  
Mean Temperature 58 °F -  
Max Temperature 66 °F 30 °F 66 °F (2013)
Min Temperature 50 °F 12 °F -15 °F (1966)
Degree Days  
Heating Degree Days 7    
Growing Degree Days 8 (Base 50)    
Moisture  
Dew Point 55 °F    
Average Humidity 92    
Maximum Humidity 100    
Minimum Humidity 79    
Precipitation  
Precipitation 1.17 in - - ()
Sea Level Pressure  
Sea Level Pressure 29.57 in    
Wind  
Wind Speed 14 mph (SSW)    
Max Wind Speed 21 mph    
Max Gust Speed 28 mph    
Visibility 5 miles    
Events Rain , Thunderstorm    
Averages and records for this station are not official NWS values.
T = Trace of Precipitation, MM = Missing Value Source: NWS Daily Summary

Daily Weather History Graph

Daily Weather History Graph

Search for Another Location

Airport or City:

Trip Planner

Search our weather history database for the weather conditions in past years. The results will help you decide how hot, cold, wet, or windy it might be!

Date:

Astronomy

Jan. 29, 2013 Rise Set
Actual Time 7:10 AM CST 5:09 PM CST
Civil Twilight 6:41 AM CST 5:38 PM CST
Nautical Twilight 6:07 AM CST 6:12 PM CST
Astronomical Twilight 5:35 AM CST 6:44 PM CST
Moon 8:08 PM CST (1/29) 8:05 AM CST (1/29)
Length of Visible Light 10h 57m
Length of Day
9h 58m
Waning Gibbous, 93% of the Moon is Illuminated
Jan 29
Waning Gibbous
Feb 3
Last Quarter
Feb 10
New
Feb 17
First Quarter
Feb 25
Full

Hourly Weather History & Observations

Time (CST) Temp. Dew Point Humidity Pressure Visibility Wind Dir Wind Speed Gust Speed Precip Events Conditions
12:15 AM 54.7 °F 53.8 °F 97% 29.75 in 1.2 mi South 15.0 mph 24.2 mph N/A   Overcast
12:35 AM 55.6 °F 54.7 °F 97% 29.74 in 2.5 mi South 18.4 mph 25.3 mph N/A   Overcast
12:55 AM 56.5 °F 55.6 °F 97% 29.72 in 3.0 mi SSW 17.3 mph 24.2 mph N/A   Overcast
1:15 AM 56.7 °F 55.8 °F 97% 29.72 in 4.0 mi SSW 17.3 mph 25.3 mph N/A   Overcast
1:35 AM 57.2 °F 56.3 °F 97% 29.72 in 5.0 mi SSW 18.4 mph 23.0 mph N/A Rain Light Rain
1:55 AM 56.7 °F 55.8 °F 97% 29.72 in 5.0 mi SSW 15.0 mph - N/A   Overcast
2:15 AM 56.7 °F 55.6 °F 96% 29.71 in 5.0 mi South 13.8 mph - N/A   Mostly Cloudy
2:35 AM 56.8 °F 55.6 °F 96% 29.71 in 7.0 mi SSW 11.5 mph - N/A   Overcast
2:55 AM 57.6 °F 56.1 °F 95% 29.70 in 7.0 mi SSW 13.8 mph 19.6 mph N/A   Overcast
3:15 AM 58.5 °F 56.5 °F 93% 29.69 in 7.0 mi SSW 17.3 mph - N/A   Overcast
3:35 AM 58.6 °F 56.5 °F 93% 29.69 in 7.0 mi South 18.4 mph 21.9 mph N/A   Overcast
3:55 AM 59.9 °F 57.6 °F 92% 29.68 in 7.0 mi SSW 17.3 mph - N/A   Overcast
4:15 AM 60.3 °F 57.2 °F 90% 29.66 in 10.0 mi SSW 20.7 mph 25.3 mph N/A   Mostly Cloudy
4:35 AM 59.9 °F 56.5 °F 88% 29.66 in 10.0 mi SSW 16.1 mph - N/A   Scattered Clouds
4:55 AM 59.9 °F 56.3 °F 88% 29.66 in 10.0 mi SSW 13.8 mph - N/A   Clear
5:15 AM 59.9 °F 56.5 °F 88% 29.66 in 10.0 mi SSW 17.3 mph 21.9 mph N/A   Scattered Clouds
5:35 AM 59.9 °F 56.8 °F 90% 29.65 in 10.0 mi SSW 18.4 mph - N/A   Mostly Cloudy
5:55 AM 59.9 °F 57.2 °F 91% 29.66 in 7.0 mi SSW 17.3 mph 24.2 mph N/A   Overcast
6:15 AM 59.9 °F 57.2 °F 91% 29.66 in 7.0 mi SSW 19.6 mph 27.6 mph N/A   Overcast
6:35 AM 59.9 °F 56.8 °F 90% 29.64 in 10.0 mi SSW 20.7 mph 25.3 mph N/A   Scattered Clouds
6:55 AM 59.9 °F 56.7 °F 89% 29.64 in 10.0 mi SSW 20.7 mph 25.3 mph N/A   Scattered Clouds
7:15 AM 59.9 °F 56.5 °F 88% 29.64 in 10.0 mi SSW 16.1 mph 25.3 mph N/A   Scattered Clouds
7:35 AM 59.9 °F 56.5 °F 88% 29.64 in 10.0 mi SSW 19.6 mph 25.3 mph N/A   Mostly Cloudy
7:55 AM 60.3 °F 56.3 °F 87% 29.64 in 10.0 mi SSW 17.3 mph 25.3 mph N/A   Mostly Cloudy
8:15 AM 60.1 °F 56.3 °F 87% 29.65 in 10.0 mi SSW 15.0 mph - N/A   Mostly Cloudy
8:35 AM 60.4 °F 56.8 °F 88% 29.65 in 10.0 mi SSW 16.1 mph 26.5 mph N/A   Mostly Cloudy
8:55 AM 61.2 °F 57.2 °F 87% 29.64 in 10.0 mi SSW 15.0 mph 21.9 mph N/A   Mostly Cloudy
9:15 AM 61.7 °F 57.6 °F 86% 29.63 in 10.0 mi SSW 15.0 mph - N/A   Mostly Cloudy
9:35 AM 62.6 °F 58.1 °F 85% 29.63 in 10.0 mi South 16.1 mph 21.9 mph N/A   Scattered Clouds
9:55 AM 62.6 °F 58.3 °F 86% 29.62 in 7.0 mi South 18.4 mph 25.3 mph N/A   Scattered Clouds
10:15 AM 62.6 °F 58.3 °F 86% 29.62 in 7.0 mi South 20.7 mph 24.2 mph N/A   Mostly Cloudy
10:35 AM 62.6 °F 58.5 °F 86% 29.63 in 7.0 mi SSW 18.4 mph - N/A   Mostly Cloudy
10:55 AM 63.1 °F 59.0 °F 86% 29.62 in 10.0 mi SSW 17.3 mph 26.5 mph N/A   Mostly Cloudy
11:15 AM 64.4 °F 59.2 °F 83% 29.61 in 10.0 mi SSW 19.6 mph 25.3 mph N/A   Overcast
11:35 AM 65.1 °F 59.7 °F 83% 29.60 in 10.0 mi South 16.1 mph 24.2 mph N/A   Overcast
11:55 AM 66.2 °F 59.5 °F 79% 29.58 in 10.0 mi SSW 20.7 mph 25.3 mph N/A   Overcast
12:15 PM 66.0 °F 59.5 °F 80% 29.57 in 10.0 mi SSW 15.0 mph 20.7 mph N/A   Overcast
12:35 PM 65.5 °F 59.4 °F 81% 29.56 in 10.0 mi SSW 17.3 mph 23.0 mph N/A   Overcast
12:55 PM 65.1 °F 59.2 °F 81% 29.54 in 10.0 mi South 11.5 mph - N/A   Overcast
1:15 PM 63.1 °F 59.0 °F 86% 29.54 in 7.0 mi SSW 18.4 mph - N/A Rain , Thunderstorm Light Thunderstorms and Rain
1:35 PM 61.7 °F 58.6 °F 90% 29.53 in 4.0 mi SSW 9.2 mph - 0.03 in Rain , Thunderstorm Thunderstorms and Rain
1:55 PM 60.4 °F 57.6 °F 90% 29.52 in 7.0 mi SSW 13.8 mph - 0.04 in Rain Rain
2:15 PM 59.9 °F 57.2 °F 91% 29.51 in 4.0 mi SSW 10.4 mph - 0.03 in Rain Rain
2:35 PM 58.5 °F 56.5 °F 93% 29.51 in 4.0 mi WSW 10.4 mph 16.1 mph 0.08 in Rain Light Rain
2:55 PM 57.6 °F 55.6 °F 93% 29.51 in 5.0 mi WSW 5.8 mph - 0.10 in Rain Rain
3:15 PM 57.4 °F 55.8 °F 94% 29.53 in 2.0 mi WSW 11.5 mph - 0.16 in Rain Heavy Rain
3:35 PM 56.7 °F 55.2 °F 95% 29.51 in 4.0 mi WSW 5.8 mph - 0.22 in Rain Light Rain
3:55 PM 56.7 °F 55.4 °F 96% 29.50 in 7.0 mi West 4.6 mph - 0.22 in Rain Rain
4:15 PM 56.3 °F 54.7 °F 94% 29.47 in 2.5 mi Calm Calm - 0.02 in Rain Light Rain
4:35 PM 55.4 °F 54.1 °F 96% 29.52 in 1.8 mi WSW 8.1 mph - 0.11 in Rain Heavy Rain
4:55 PM 55.6 °F 54.7 °F 97% 29.50 in 0.8 mi Calm Calm - 0.19 in Rain Heavy Rain
5:15 PM 54.9 °F 53.8 °F 96% 29.50 in 0.5 mi West 4.6 mph - 0.05 in Rain Rain
5:35 PM 54.7 °F 53.6 °F 96% 29.50 in 0.5 mi Calm Calm - 0.10 in Rain Rain
5:55 PM 54.7 °F 53.8 °F 97% 29.49 in 0.5 mi Calm Calm - 0.14 in Rain Rain
6:15 PM 54.7 °F 53.8 °F 97% 29.50 in 0.5 mi Calm Calm - 0.03 in Rain Rain
6:35 PM 54.3 °F 53.4 °F 97% 29.49 in 0.5 mi WNW 4.6 mph - 0.07 in Rain Rain
6:55 PM 54.7 °F 53.8 °F 97% 29.50 in 0.5 mi Calm Calm - 0.10 in Rain Rain
7:15 PM 53.8 °F 52.9 °F 97% 29.50 in 0.8 mi Calm Calm - 0.03 in Rain Rain
7:35 PM 53.6 °F 52.7 °F 97% 29.48 in 0.5 mi Calm Calm - 0.08 in Rain Rain
7:55 PM 52.7 °F 51.8 °F 97% 29.47 in 0.8 mi Calm Calm - 0.12 in Rain Rain
8:15 PM 52.2 °F 51.4 °F 97% 29.48 in 0.5 mi Calm Calm - 0.02 in Rain Rain
8:35 PM 51.8 °F 51.1 °F 97% 29.47 in 0.5 mi SSE 3.5 mph - 0.07 in Rain Rain
8:55 PM 52.9 °F 52.2 °F 97% 29.45 in 0.5 mi Calm Calm - 0.11 in Rain Light Rain
9:15 PM 52.2 °F 51.4 °F 97% 29.44 in 0.2 mi South 3.5 mph - 0.02 in Rain Rain
9:35 PM 50.7 °F 50.0 °F 97% 29.44 in 0.5 mi South 5.8 mph - 0.05 in Rain Rain
9:55 PM 51.3 °F 50.5 °F 97% 29.45 in 0.5 mi SSW 8.1 mph - 0.09 in Rain Rain
10:15 PM 51.1 °F 50.4 °F 97% 29.46 in 0.5 mi SW 9.2 mph - 0.02 in Rain Light Rain
10:35 PM 51.3 °F 50.5 °F 97% 29.43 in 4.0 mi South 5.8 mph - 0.04 in Rain Light Rain
10:55 PM 51.4 °F 50.7 °F 97% 29.42 in 0.8 mi South 4.6 mph - 0.05 in Rain Light Rain
11:15 PM 50.9 °F 50.2 °F 97% 29.40 in 0.8 mi SSW 5.8 mph - 0.01 in   Drizzle
11:35 PM 50.0 °F 50.0 °F 100% 29.39 in 0.5 mi SSW 3.5 mph - N/A Rain Rain
11:55 PM 50.0 °F 50.0 °F 100% 29.40 in 0.2 mi West 5.8 mph - N/A Rain Rain